Location: Bargu�
(14.7912°N, 3.0620°W)
Time: 17:25:56
(UTC+00:00)

Daily predictions for brighter satellites

Satellite Brightness Start Highest point End
(mag) Time Altitude Azimuth Time Altitude Azimuth Time Altitude Azimuth
STARLINK-68 3.6 18:00:43 10° SSW 18:04:41 63° SE 18:08:39 10° NE
YAOGAN 1 4.3 18:04:21 10° E 18:06:13 13° ENE 18:08:04 10° NE
STARLINK-58 3.6 18:02:17 10° SSW 18:06:15 62° SE 18:10:13 10° NE
SEDSat Delta rocket 4.1 17:59:56 10° SW 18:06:30 77° SSE 18:13:19 10° ENE
STARLINK-62 3.6 18:03:59 10° SSW 18:07:58 70° SE 18:11:57 10° NE
Meteor 1-18 Rocket 4.3 18:03:05 10° S 18:08:55 89° E 18:14:37 10° N
STARLINK-63 3.6 18:05:33 10° SSW 18:09:32 69° SE 18:13:30 10° NE
Cosmos 1908 Rocket 3.5 18:06:40 10° N 18:11:01 82° E 18:15:20 10° S
Cosmos 1666 2.6 18:08:15 10° N 18:11:58 85° E 18:15:42 10° S
Feng Yun 1-1 Rocket 4.4 18:07:14 10° S 18:12:40 79° WSW 18:18:02 10° NNW
STARLINK-72 3.5 18:08:45 10° SSW 18:12:45 72° SE 18:16:44 10° NE
STARLINK-59 3.5 18:12:08 10° SSW 18:16:08 85° SE 18:20:09 10° NE
COSMO-SKYMED 1 3.1 18:12:51 10° N 18:17:07 63° WNW 18:21:24 10° SSW
Cosmos 1943 3.5 18:11:55 10° S 18:17:19 47° ESE 18:22:43 10° NNE
STARLINK-55 3.5 18:15:23 10° SW 18:19:24 88° WNW 18:23:25 10° NE
MDS-1 3.2 18:18:23 10° WSW 18:20:15 66° SSE 18:21:50 15° ENE
STARLINK-28 3.6 18:17:06 10° SW 18:21:07 82° NW 18:25:07 10° NNE
YAOGAN 6 3.0 18:18:22 10° SE 18:21:35 36° ENE 18:24:51 10° N
CZ-4C R/B 1.8 18:17:04 10° SSW 18:21:37 85° WNW 18:26:34 10° NNE
SMAP 4.2 18:19:05 10° S 18:23:34 48° W 18:28:02 10° NNW
STARLINK-26 4.3 18:20:38 10° SW 18:23:57 40° NW 18:27:16 10° NNE
STARLINK-53 3.7 18:20:23 10° SW 18:24:23 74° NW 18:28:23 10° NNE
CZ-3C R/B 2.5 18:22:13 10° W 18:25:26 63° N 18:37:47 14° ENE
STARLINK-54 3.8 18:22:05 10° SW 18:26:05 69° NW 18:30:04 10° NNE
STARLINK-34 3.9 18:25:24 10° SW 18:29:22 62° NW 18:33:18 10° NNE
FengYun 1-2 T 4.3 18:26:02 10° SSE 18:31:20 53° ENE 18:36:38 10° N
STARLINK-81 3.8 18:28:30 10° SW 18:32:29 65° NW 18:36:10 12° NNE
NOSS 2-1 (C) 4.1 18:29:58 10° S 18:33:52 33° ESE 18:35:49 20° ENE
STARLINK-24 4.2 18:30:23 10° SW 18:34:18 54° NW 18:38:03 11° NNE
Cosmos 2278 Rocket 3.5 18:29:45 10° NNW 18:35:05 45° WSW 18:40:25 10° S
STARLINK-77 4.0 18:31:51 10° SW 18:35:48 58° NW 18:39:21 12° NNE
IUS-18 SRM-1 2.9 18:34:00 10° WNW 18:37:18 37° SSW 18:39:17 10° SE
STARLINK-25 4.1 18:33:29 10° SW 18:37:25 55° NW 18:40:55 13° NNE
NOSS 2-1 (D) 3.9 18:33:29 10° S 18:37:30 37° ESE 18:39:22 22° ENE
STARLINK-71 4.5 18:35:26 10° SW 18:39:16 45° NW 18:42:51 12° NNE
CZ-4 R/B 1.5 18:35:50 10° SSE 18:39:40 48° ENE 18:43:25 10° N
STARLINK-79 4.3 18:36:51 10° SW 18:40:44 50° NW 18:44:08 13° NNE
Cosmos 1603 4.1 18:35:48 10° SSW 18:41:24 64° WNW 18:47:04 10° N
Okean 3 3.6 18:37:41 10° S 18:41:53 73° W 18:46:03 10° N
STARLINK-78 4.4 18:38:31 10° SW 18:42:23 47° NW 18:45:43 13° NNE
Cosmos 1743 2.6 18:40:00 10° N 18:43:52 84° E 18:47:45 10° S
Cosmos 921 Rocket 2.9 18:41:39 10° N 18:45:58 68° ENE 18:50:22 10° SSE
OAO 1 Rocket 4.5 18:40:54 10° NW 18:46:06 57° NNE 18:49:59 18° ESE
Cosmos 1553 Rocket 4.1 18:40:19 10° N 18:46:37 60° E 18:52:54 10° SSE
GPS 2-18 Rocket1 3.8 18:46:40 10° W 18:50:29 50° SSW 18:53:15 17° SE
CZ-3B R/B 2.5 18:47:47 10° W 18:52:10 42° N 18:56:13 22° NE
Meteor 2-4 Rocket 4.1 18:51:34 10° SSW 18:57:29 71° W 19:03:19 10° N
H-2A R/B 4.3 18:00:20 10° WNW 19:01:47 84° NNE 19:08:05 17° ESE
CSL-04 Rocket 3.5 19:04:22 10° SSE 19:09:38 80° ENE 19:14:54 10° N
ISS -3.6 19:06:25 10° NW 19:09:44 70° SW 19:10:49 39° SSE
Cosmos 405 Rocket 4.2 19:16:26 24° SSE 19:16:26 24° SSE 19:18:08 10° SSE
Okean 2 Rocket 3.1 19:10:31 10° N 19:15:00 80° W 19:19:31 10° S
Orbus 7S 4.3 19:12:56 10° SW 19:15:03 24° S 19:15:03 24° S
Lacrosse 5 4.5 19:13:45 10° WNW 19:15:52 12° NW 19:18:01 10° NNW
ASC 2 Rocket 4.4 19:09:53 10° WNW 19:16:23 77° NNE 19:21:31 30° E
ARIANE 42L R/B 4.5 19:11:37 10° WSW 19:18:42 25° SSW 19:20:42 17° SSE
Cosmos 1975 3.8 19:16:13 10° NNW 19:20:04 48° W 19:23:57 10° SSW
SWIFT 3.0 19:16:16 10° WNW 19:19:51 41° NNW 19:19:51 41° NNW
NOSS 2-1 (E) 3.6 19:18:56 10° SW 19:22:54 53° WNW 19:23:16 50° NW
GPS 2-14 Rocket1 3.1 19:21:14 10° W 19:24:36 54° NW 19:24:36 54° NW
Cosmos 405 4.4 19:23:24 10° SSW 19:26:40 37° W 19:27:37 30° NW
Meteor 1-12 Rocket 4.1 19:23:19 10° N 19:29:02 73° E 19:34:41 10° SSE
Nadezhda 2 Rocket 4.4 19:23:14 10° S 19:29:33 65° E 19:31:06 49° NE
Cosmos 1939 Rocket 3.2 19:28:47 10° S 19:32:49 65° W 19:32:59 64° W
ARIANE 5 R/B 4.5 19:23:07 10° WSW 19:33:27 36° SSW 19:35:24 26° SSE
FUSE 3.9 19:35:35 10° WNW 19:40:57 76° SSW 19:41:01 76° SSW
YAOGAN 1 4.5 19:38:14 10° SSW 19:41:58 29° W 19:45:42 10° NW
H-2A ROCKET BODY 2.0 19:34:07 10° WSW 19:41:34 60° WNW 19:41:34 60° WNW
Atlas Centaur 2 3.8 19:35:05 10° WNW 19:42:51 50° SSW 19:49:44 15° SE
ADEOS Rocket 3.2 19:41:55 32° N 19:44:24 60° WNW 19:50:08 10° SSW
ATLAS 5 CENTAUR R/B 3.1 19:40:39 10° W 19:45:27 56° S 20:05:18 10° ESE
USA 267 3.2 19:49:51 33° SSE 19:53:04 84° SW 19:59:38 10° NW
Delta 2 Rocket 4.3 19:54:24 10° WSW 20:03:26 85° NNW 20:03:44 83° NNE
ATLAS 3B CENTAUR R/B 3.8 19:57:40 10° WSW 20:05:20 77° NNW 20:08:50 56° NE
CZ-3B R/B 4.3 20:42:22 10° WNW 20:44:06 19° NW 20:44:06 19° NW
